Keflavik, Iceland

4:17 AM GMT on August 19, 2017 (GMT +0000)
Keflavik

Weather History for BIKF - January, 2014

Change the Weather History Date:

Wednesday, January 22, 2014

  Actual Average Record
Temperature  
Mean Temperature 35 °F -  
Max Temperature 38 °F 35 °F 46 °F (2011)
Min Temperature 32 °F 27 °F 21 °F (2003)
Degree Days  
Heating Degree Days 30    
Moisture  
Dew Point 35 °F    
Average Humidity 98    
Maximum Humidity 100    
Minimum Humidity 87    
Precipitation  
Precipitation 0.35 in - - ()
Sea Level Pressure  
Sea Level Pressure 29.12 in    
Wind  
Wind Speed 3 mph ()    
Max Wind Speed 9 mph    
Max Gust Speed -    
Visibility 4.2 miles    
Events Fog , Rain , Snow    
Averages and records for this station are not official NWS values.
T = Trace of Precipitation, MM = Missing Value Source: Averaged Metar Reports

Daily Weather History Graph

Daily Weather History Graph

Search for Another Location

Airport or City:

Trip Planner

Search our weather history database for the weather conditions in past years. The results will help you decide how hot, cold, wet, or windy it might be!

Date:

Astronomy

Jan. 22, 2014 Rise Set
Actual Time 10:38 AM GMT 4:46 PM GMT
Civil Twilight 9:36 AM GMT 5:48 PM GMT
Nautical Twilight 8:34 AM GMT 6:50 PM GMT
Astronomical Twilight 7:38 AM GMT 7:46 PM GMT
Moon 12:21 AM GMT (1/22) 11:09 AM GMT (1/22)
Length of Visible Light 8h 12m
Length of Day
6h 08m
Waning Gibbous, 67% of the Moon is Illuminated
Jan 22
Waning Gibbous
Jan 24
Last Quarter
Jan 30
New
Feb 6
First Quarter
Feb 14
Full

Hourly Weather History & Observations

Time (GMT) Temp. Windchill Dew Point Humidity Pressure Visibility Wind Dir Wind Speed Gust Speed Precip Events Conditions
12:00 AM 36 °F - 34 °F 91% 29.17 in 31 mi NNE 4.6 mph - -  
12:00 AM 35.6 °F 31.7 °F 33.8 °F 93% 29.15 in 6.2 mi NNE 4.6 mph - N/A   Mostly Cloudy
12:30 AM 33.8 °F 30.8 °F 33.8 °F 100% 29.15 in 6.2 mi NNE 3.5 mph - N/A   Mostly Cloudy
1:00 AM 35.6 °F 32.8 °F 35.6 °F 100% 29.18 in 6.2 mi ENE 3.5 mph - N/A   Mostly Cloudy
1:30 AM 37.4 °F 34.9 °F 33.8 °F 87% 29.15 in 6.2 mi Variable 3.5 mph - N/A   Mostly Cloudy
2:00 AM 42.8 °F 41.1 °F 42.8 °F 100% 29.15 in 6.2 mi South 3.5 mph - N/A   Mostly Cloudy
2:30 AM 37.4 °F 33.8 °F 35.6 °F 93% 29.18 in 6.2 mi WNW 4.6 mph - N/A   Mostly Cloudy
3:00 AM 36 °F - 35 °F 92% 29.19 in 31 mi West 3.5 mph - -   Overcast
3:00 AM 35.6 °F 32.8 °F 33.8 °F 93% 29.18 in 6.2 mi West 3.5 mph - N/A   Overcast
3:30 AM 35.6 °F - 33.8 °F 93% 29.18 in 6.2 mi WNW 1.2 mph - N/A   Overcast
4:00 AM 35.6 °F 32.8 °F 35.6 °F 100% 29.15 in 6.2 mi West 3.5 mph - N/A   Overcast
4:30 AM 37.4 °F - 35.6 °F 93% 29.15 in 5.0 mi West 1.2 mph - N/A   Light Drizzle
5:00 AM 37.4 °F 34.9 °F 35.6 °F 93% 29.18 in 3.1 mi West 3.5 mph - N/A   Light Drizzle
5:30 AM 37.4 °F 33.8 °F 37.4 °F 100% 29.15 in 3.1 mi WNW 4.6 mph - N/A Rain Light Rain
6:00 AM 37 °F - 37 °F 100% 29.18 in 1 mi North 3.5 mph - - Rain Heavy Rain
6:00 AM 37.4 °F 34.9 °F 35.6 °F 93% 29.15 in 0.6 mi North 3.5 mph - N/A Fog , Rain Drizzle
6:30 AM 35.6 °F - 35.6 °F 100% 29.18 in 0.8 mi East 2.3 mph - N/A Rain Drizzle
7:00 AM 35.6 °F 32.8 °F 35.6 °F 100% 29.15 in 1.1 mi East 3.5 mph - N/A Rain Drizzle
7:30 AM 35.6 °F - 35.6 °F 100% 29.18 in 0.7 mi East 2.3 mph - N/A Rain Light Drizzle
8:00 AM 37.4 °F - 35.6 °F 93% 29.18 in 1.6 mi East 1.2 mph - N/A Rain Rain
8:30 AM 37.4 °F - 37.4 °F 100% 29.15 in 1.2 mi Variable 1.2 mph - N/A   Light Drizzle
9:00 AM 36 °F - 36 °F 100% 29.17 in 1 mi 1.2 mph - - Rain Light Drizzle
9:00 AM 37.4 °F - 37.4 °F 100% 29.15 in 1.2 mi Variable 1.2 mph - N/A   Light Drizzle
9:30 AM 35.6 °F - 35.6 °F 100% 29.15 in 0.6 mi Variable 1.2 mph - N/A Fog Light Drizzle
10:00 AM 35.6 °F - 35.6 °F 100% 29.15 in 0.5 mi SW 1.2 mph - N/A Fog Light Drizzle
10:30 AM 35.6 °F 31.7 °F 35.6 °F 100% 29.15 in 0.4 mi SW 4.6 mph - N/A Fog Light Drizzle
11:00 AM 37.4 °F 34.9 °F 37.4 °F 100% 29.15 in 0.4 mi WSW 3.5 mph - N/A Fog Light Drizzle
11:30 AM 37.4 °F 32.8 °F 35.6 °F 93% 29.15 in 0.3 mi West 5.8 mph - N/A Fog Light Drizzle
12:00 PM 37 °F - 37 °F 99% 29.16 in 0 mi West 4.6 mph - - Rain Light Drizzle
12:00 PM 37.4 °F 33.8 °F 37.4 °F 100% 29.15 in 0.3 mi West 4.6 mph - N/A Fog Light Drizzle
12:30 PM 37.4 °F 32.1 °F 37.4 °F 100% 29.12 in 0.4 mi West 6.9 mph - N/A Fog , Rain Light Rain
1:00 PM 37.4 °F 32.8 °F 37.4 °F 100% 29.12 in 3.1 mi West 5.8 mph - N/A Rain Light Rain
1:30 PM 37.4 °F 31.4 °F 37.4 °F 100% 29.12 in 6.2 mi West 8.1 mph - N/A Rain Light Drizzle
2:00 PM 35.6 °F 28.6 °F 35.6 °F 100% 29.12 in 6.2 mi West 9.2 mph - N/A Rain Light Rain
2:30 PM 35.6 °F 29.9 °F 35.6 °F 100% 29.09 in 6.2 mi West 6.9 mph - N/A Rain Light Rain
3:00 PM 35 °F - 34 °F 93% 29.11 in 6 mi West 6.9 mph - - Snow Light Snow
3:00 PM 33.8 °F 27.7 °F 33.8 °F 100% 29.09 in 6.2 mi West 6.9 mph - N/A Rain , Snow Light Rain
3:30 PM 33.8 °F 29.6 °F 33.8 °F 100% 29.09 in 5.6 mi West 4.6 mph - N/A Rain , Snow Light Rain
4:00 PM 33.8 °F 30.8 °F 33.8 °F 100% 29.09 in 6.2 mi WNW 3.5 mph - N/A Rain , Snow Light Rain
4:30 PM 33.8 °F 30.8 °F 33.8 °F 100% 29.06 in 6.2 mi NNW 3.5 mph - N/A Rain Light Rain
5:00 PM 33.8 °F - 33.8 °F 100% 29.06 in 6.2 mi NW 1.2 mph - N/A Rain Light Rain
5:30 PM 33.8 °F - 32.0 °F 93% 29.06 in 6.2 mi SSE 1.2 mph - N/A Rain Light Rain
6:00 PM 33 °F - 32 °F 92% 29.08 in 9 mi SE 2.3 mph - - Rain Light Rain
6:00 PM 32.0 °F - 32.0 °F 100% 29.06 in 6.2 mi SE 2.3 mph - N/A   Overcast
6:30 PM 33.8 °F - 32.0 °F 93% 29.06 in 5.0 mi South 2.3 mph - N/A Rain Light Rain
7:00 PM 33.8 °F - 33.8 °F 100% 29.06 in 2.5 mi South 1.2 mph - N/A Rain Rain
7:30 PM 33.8 °F - 33.8 °F 100% 29.03 in 5.0 mi Calm Calm - N/A Rain Rain
8:00 PM 33.8 °F 30.8 °F 33.8 °F 100% 29.03 in 3.7 mi SW 3.5 mph - N/A Rain Rain
8:30 PM 33.8 °F - 33.8 °F 100% 29.03 in 3.7 mi Variable 1.2 mph - N/A   Light Drizzle
9:00 PM 34 °F - 33 °F 95% 29.06 in 11 mi South 1.2 mph - - Rain Light Drizzle
9:00 PM 33.8 °F - 33.8 °F 100% 29.03 in 6.2 mi South 1.2 mph - N/A Fog Mostly Cloudy
9:30 PM 35.6 °F - 35.6 °F 100% 29.03 in 6.2 mi WSW 1.2 mph - N/A   Mostly Cloudy
10:00 PM 35.6 °F 32.8 °F 33.8 °F 93% 29.03 in 6.2 mi West 3.5 mph - N/A   Mostly Cloudy
10:30 PM 35.6 °F 29.9 °F 35.6 °F 100% 29.03 in 6.2 mi West 6.9 mph - N/A   Mostly Cloudy
11:00 PM 35.6 °F 30.7 °F 35.6 °F 100% 29.03 in 6.2 mi West 5.8 mph - N/A   Mostly Cloudy
11:30 PM 35.6 °F 28.6 °F 35.6 °F 100% 29.03 in 6.2 mi West 9.2 mph - N/A   Mostly Cloudy